カタリナ彗星

300P/Catalina (2014)

English version
Home page
Updated on May 7, 2015

---------------------------------------------------------------------

・ プロフィール

符号 300P/2014 G2
検出日 2014年4月9日
検出光度 18.7等
検出者 M. Masek (Liberec, Czech Republic)

・ 写真集

・ 軌道要素

Epoch 2014 May 23.0 TT = JDT 2456800.5
T 2014 May 29.87841 TT                                  MPC
q   0.8259015            (2000.0)            P               Q
n   0.22285920     Peri.  222.73985     +0.74617597     +0.65839704
a   2.6943189      Node    95.80763     -0.58091003     +0.71629397
e   0.6934656      Incl.    5.69160     -0.32521526     +0.23116290
P   4.42
From 589 observations 2005 May 6-2014 Aug. 2, mean residual 0".5.

・ 星図

・ 光度変化

        H = 17.5  G = 0.15                [   ,-87]  (              〜2014年 3月 3日)
        m1 = 16.0 + 5 logΔ + 23.0 log r  [-87, 85]  (2014年 3月 3日〜2014年 8月22日)
        H = 17.5  G = 0.15                [ 85,   ]  (2014年 8月22日〜              )

---------------------------------------------------------------------

軌道要素はM.P.E.C. 2014-P41に掲載されたものです。
星図はステラナビゲータ Ver.8 (アストロアーツ) で作成したものです。
光度グラフはComet for Windowsで作成したものです。

---------------------------------------------------------------------

Copyright(C) Seiichi Yoshida (comet@aerith.net). All rights reserved.